Retour au catalogue

STARLINK-36393

ActifCommunicationsVLEO
NORAD 67859·PAYLOAD·🇺🇸 United States

Lancé Feb 20, 2026 depuis Vandenberg Space Force Base

Loading…

Prochains Passages (prochaines 24 heures)

TLE

FraisSource: CelesTrak SupGP

Époque: Sep 14, 2026, 21:43 UTC

1 67859C 26034K   26257.90534722  .00040325  00000+0  12971-2 0  2576
2 67859  53.1587  43.4922 0001255  81.0074 206.9474 15.31673910    12

Suivez STARLINK-36393 en temps réel avec AllMySat

Download on the App Store